Welcome to the New NWS' Forecast!
Most changes are behind the scenes, but click here for differences you might notice.

Regional Weather Roundup (RWR)

Issued by Gray - Portland, ME (GYX)

                            
845 
ASUS41 KGYX 201610
RWRGYX
WEATHER ROUNDUP FOR MAINE AND NEW HAMPSHIRE
NATIONAL WEATHER SERVICE GRAY ME
1100 AM EST SAT JAN 20 2018

MEZ002-005-006-010-012-015-018-020-021-024-026-027-029-201700-
MAINE
  
CITY           SKY/WX    TMP DP  RH WIND       PRES   REMARKS
PORTLAND       FAIR      37  23  56 SW6G17    29.58R                  
SANFORD        FAIR      42  24  49 W10G17    29.60S                  
BAR HARBOR     FAIR      35  27  72 W7        29.53F                  
WISCASSET      FAIR      36  25  64 SW9       29.58S                  
ROCKLAND       FAIR      37  26  64 W15       29.55F                  
FRYEBURG       FAIR      41  27  57 CALM      29.54S                  
LEWISTONAUBURN FAIR      37  23  56 W5        29.55R                  
AUGUSTA        FAIR      35  23  61 SW6       29.55S                  
WATERVILLE     FAIR      36  23  59 VRB6      29.49S                  
BANGOR         PTSUNNY   34  24  67 SW8       29.51F                  
GREENVILLE     NOT AVBL                                               
MILLINOCKET    CLOUDY    30  23  75 VRB5      29.44S                  
HOULTON        PTSUNNY   30  23  75 SW10      29.37F                  
PRESQUE ISLE   CLOUDY    35  24  64 SW10      29.33F                  
FRENCHVILLE    CLOUDY    31  25  78 SW16G22   29.25F WCI  20          
CARIBOU        CLOUDY    33  24  69 SW13G20   29.30F                  
$$

NHZ002-005-008-009-011-012-014-201700-
NEW HAMPSHIRE
  
CITY           SKY/WX    TMP DP  RH WIND       PRES   REMARKS
PORTSMOUTH     PTSUNNY   39  22  51 SW8       29.62S                  
ROCHESTER      FAIR      43  24  47 W8G21     29.60S                  
NASHUA         FAIR      42  24  49 W7G15     29.68R                  
MANCHESTER     PTSUNNY   40  23  50 SW7       29.65R                  
CONCORD        FAIR      43  25  49 W7        29.63F                  
LACONIA        FAIR      41  24  51 W17G24    29.60F                  
PLYMOUTH       FAIR      42  24  48 W13G23    29.61R                  
BERLIN         CLOUDY    38  25  59 VRB3      29.56R                  
WHITEFIELD     PTSUNNY   38  25  59 W6        29.61R                  
JAFFREY        FAIR      42  25  50 VRB5G17   29.66S                  
KEENE          FAIR      40  27  59 CALM      29.71S                  
LEBANON        FAIR      41  26  55 W9        29.65S                  
MT WASHINGTON  FOG       14  14 100 W69G82      N/A  VSB 1/16WCI -14  
$$

VTZ005-007-008-201700-
VERMONT
  
CITY           SKY/WX    TMP DP  RH WIND       PRES   REMARKS
ST JOHNSBURY     N/A     39  26  59 MISG      29.61R                  
MONTPELIER     FAIR      38  26  62 SW12G17   29.66R                  
BURLINGTON     PTSUNNY   39  24  55 S10       29.67R                  
$$

MAZ007-012-024-CTZ003-RIZ002-NYZ038-NYZ072-201700-
SOUTHERN NEW ENGLAND AND NY
  
CITY           SKY/WX    TMP DP  RH WIND       PRES   REMARKS
BOSTON         PTSUNNY   44  23  43 W17G26    29.69S                  
WORCESTER      FAIR      39  20  46 W20G38    29.68R                  
NANTUCKET      FAIR      46  36  68 SW28G35   29.77F                  
PROVIDENCE     PTSUNNY   47  25  42 W13G22    29.76F                  
HARTFORD       PTSUNNY   41  25  53 S6        29.79R                  
ALBANY         PTSUNNY   43  23  45 W8G18     29.82R                  
NEW YORK CITY  PTSUNNY   48  23  37 W10G17    29.89F                  
$$

ANZ081-ANZ082-ANZ150-NHZ014-MEZ023>029-201700-
COASTAL MARINE OBSERVATIONS
  
STATION/POSITION TIME  TEMP    WIND        PRES    WAVE
                       AIR SEA DIR/SP/G            HT/PER
                 (UTC) (F)     (DEG/KT/KT) (MB)    (FT/S)
MOUNT DESERT ROC 1600   41     240/ 28/ 32 1000.0F
MATINICUS ROCK   1600   41     260/ 31/ 38 1000.2R
ISLE OF SHOALS   1600   39     230/ 22/ 23 1003.1F
JEFFREYS LEDGE   1536      43                N/A     6/ 6
GEORGES BANK BUO 1450   49 58              1008.6    9/ 6
$$

.............KEY..............
   WCI - WIND CHILL
   TC  - TEMPERATURE IN CELSIUS
   VSB - VISIBILITY IN MILES
   HX  - HEAT INDEX
   FAIR- INDICATES FEW OR NO CLOUDS BELOW 12,000 FT, WITH NO 
         SIGNIFICANT WEATHER AND/OR OBSTRUCTIONS TO VISIBILITY.